| time (UTC) | temp C | wind direction | speed KPH | gust KPH | rain 1hr cm | rain 24hr cm | rain mn cm | humidity % | barometer mb |
| 20260831011553 | 22 | 0 | 0.0 | 0.0 | 0.08 | 0.10 | 0.10 | 96 | 1018.8 |
| 20260831010119 | 22 | 0 | 0.0 | 0.0 | 0.05 | 0.08 | 0.08 | 95 | 1018.6 |
| 20260831004558 | 22 | 0 | 0.0 | 0.0 | 0.08 | 0.08 | 0.08 | 95 | 1018.4 |
| 20260831003106 | 22 | 0 | 0.0 | 0.0 | 0.05 | 0.05 | 0.05 | 93 | 1018.3 |
| 20260831001551 | 23 | 0 | 0.0 | 0.0 | 0.03 | 0.03 | 0.03 | 91 | 1018.2 |
| 20260831000100 | 23 | 0 | 0.0 | 0.0 | 0.00 | 0.00 | 0.00 | 89 | 1018.0 |
| 20260830234554 | 24 | 0 | 0.0 | 0.0 | 0.00 | 0.00 | 0.00 | 86 | 1017.8 |
| 20260830233049 | 25 | 0 | 0.0 | 0.0 | 0.00 | 0.00 | 0.00 | 85 | 1017.6 |
| 20260830231601 | 25 | 247 | 0.0 | 6.4 | 0.00 | 0.00 | 0.00 | 84 | 1017.5 |
| 20260830230059 | 25 | 0 | 0.0 | 0.0 | 0.00 | 0.00 | 0.00 | 84 | 1017.4 |
| 20260830224554 | 25 | 0 | 0.0 | 1.6 | 0.00 | 0.00 | 0.00 | 84 | 1017.5 |
| 20260830223104 | 25 | 0 | 0.0 | 4.8 | 0.00 | 0.00 | 0.00 | 83 | 1017.4 |
| 20260830221600 | 25 | 0 | 0.0 | 1.6 | 0.00 | 0.00 | 0.00 | 83 | 1017.5 |
| 20260830220054 | 25 | 0 | 0.0 | 8.0 | 0.00 | 0.00 | 0.00 | 83 | 1017.5 |
| 20260830214548 | 25 | 0 | 0.0 | 12.9 | 0.00 | 0.00 | 0.00 | 82 | 1017.7 |
| 20260830213052 | 25 | 0 | 1.6 | 8.0 | 0.00 | 0.00 | 0.00 | 82 | 1017.5 |
| 20260830211552 | 25 | 261 | 0.0 | 11.3 | 0.00 | 0.00 | 0.00 | 82 | 1017.5 |
| 20260830210103 | 25 | 0 | 0.0 | 14.5 | 0.00 | 0.00 | 0.00 | 82 | 1017.5 |
| 20260830204603 | 25 | 0 | 0.0 | 11.3 | 0.00 | 0.00 | 0.00 | 82 | 1017.8 |
| 20260830203055 | 25 | 240 | 6.4 | 19.3 | 0.00 | 0.00 | 0.00 | 82 | 1017.9 |
| 20260830201553 | 25 | 0 | 3.2 | 14.5 | 0.00 | 0.00 | 0.00 | 83 | 1017.9 |
| 20260830200051 | 24 | 244 | 8.0 | 19.3 | 0.00 | 0.00 | 0.00 | 83 | 1018.2 |
| 20260830194606 | 24 | 0 | 3.2 | 16.1 | 0.00 | 0.00 | 0.00 | 84 | 1018.3 |
| 20260830193053 | 23 | 257 | 1.6 | 14.5 | 0.00 | 0.00 | 0.00 | 84 | 1018.4 |
| 20260830191550 | 23 | 0 | 4.8 | 20.9 | 0.00 | 0.00 | 0.00 | 84 | 1018.6 |
| 20260830184557 | 24 | 246 | 3.2 | 22.5 | 0.00 | 0.00 | 0.00 | 82 | 1019.1 |
| 20260830183053 | 24 | 232 | 1.6 | 22.5 | 0.00 | 0.00 | 0.00 | 82 | 1019.3 |
| 20260830181550 | 24 | 252 | 3.2 | 19.3 | 0.00 | 0.00 | 0.00 | 81 | 1019.4 |
| 20260830180100 | 23 | 0 | 4.8 | 16.1 | 0.00 | 0.00 | 0.00 | 80 | 1019.5 |
| 20260830174612 | 23 | 225 | 0.0 | 14.5 | 0.00 | 0.00 | 0.00 | 79 | 1019.7 |
| 20260830173049 | 23 | 251 | 1.6 | 14.5 | 0.00 | 0.00 | 0.00 | 77 | 1019.8 |
| 20260830171605 | 23 | 253 | 1.6 | 22.5 | 0.00 | 0.00 | 0.00 | 75 | 1020.0 |
| 20260830170056 | 25 | 225 | 8.0 | 22.5 | 0.00 | 0.00 | 0.00 | 71 | 1020.1 |
| 20260830164551 | 25 | 257 | 1.6 | 17.7 | 0.00 | 0.00 | 0.00 | 70 | 1020.0 |
| 20260830163100 | 25 | 261 | 4.8 | 14.5 | 0.00 | 0.00 | 0.00 | 68 | 1019.9 |
| 20260830161610 | 24 | 0 | 3.2 | 12.9 | 0.00 | 0.00 | 0.00 | 69 | 1020.3 |
| 20260830160055 | 24 | 241 | 1.6 | 16.1 | 0.00 | 0.00 | 0.00 | 67 | 1020.7 |
| 20260830154559 | 24 | 235 | 1.6 | 14.5 | 0.00 | 0.00 | 0.00 | 64 | 1020.8 |
| 20260830153103 | 25 | 254 | 0.0 | 12.9 | 0.00 | 0.00 | 0.00 | 63 | 1020.7 |
| 20260830151558 | 25 | 229 | 1.6 | 14.5 | 0.00 | 0.00 | 0.00 | 62 | 1020.9 |
| 20260830150053 | 23 | 0 | 1.6 | 11.3 | 0.00 | 0.00 | 0.00 | 67 | 1021.1 |
| 20260830144601 | 23 | 258 | 1.6 | 8.0 | 0.00 | 0.00 | 0.00 | 70 | 1021.4 |
| 20260830143055 | 22 | 270 | 1.6 | 12.9 | 0.00 | 0.00 | 0.00 | 71 | 1021.4 |
| 20260830141552 | 22 | 261 | 0.0 | 8.0 | 0.00 | 0.00 | 0.00 | 73 | 1021.4 |
| 20260830140110 | 22 | 0 | 1.6 | 12.9 | 0.00 | 0.00 | 0.00 | 73 | 1021.4 |
| 20260830134549 | 22 | 259 | 1.6 | 11.3 | 0.00 | 0.00 | 0.00 | 72 | 1021.5 |
| 20260830133053 | 21 | 0 | 0.0 | 6.4 | 0.00 | 0.00 | 0.00 | 72 | 1021.5 |
| 20260830131555 | 20 | 0 | 0.0 | 6.4 | 0.00 | 0.00 | 0.00 | 79 | 1021.7 |
| 20260830124558 | 20 | 0 | 0.0 | 4.8 | 0.00 | 0.00 | 0.00 | 81 | 1022.0 |
| 20260830123058 | 18 | 0 | 0.0 | 4.8 | 0.00 | 0.00 | 0.00 | 85 | 1021.9 |
| 20260830121603 | 17 | 0 | 0.0 | 0.0 | 0.00 | 0.00 | 0.00 | 87 | 1022.0 |
| 20260830120056 | 17 | 0 | 0.0 | 0.0 | 0.00 | 0.00 | 0.00 | 90 | 1022.2 |
| 20260830114554 | 16 | 0 | 0.0 | 0.0 | 0.00 | 0.00 | 0.00 | 92 | 1022.3 |
| 20260830113055 | 16 | 0 | 0.0 | 0.0 | 0.00 | 0.00 | 0.00 | 93 | 1022.2 |
| 20260830111554 | 16 | 0 | 0.0 | 0.0 | 0.00 | 0.00 | 0.00 | 93 | 1022.1 |
| 20260830110051 | 15 | 0 | 0.0 | 0.0 | 0.00 | 0.00 | 0.00 | 93 | 1022.0 |
| 20260830104601 | 15 | 0 | 0.0 | 0.0 | 0.00 | 0.00 | 0.00 | 93 | 1021.9 |
| 20260830103052 | 15 | 0 | 0.0 | 0.0 | 0.00 | 0.00 | 0.00 | 92 | 1021.9 |
| 20260830101604 | 16 | 0 | 0.0 | 0.0 | 0.00 | 0.00 | 0.00 | 92 | 1022.0 |
| 20260830100059 | 16 | 0 | 0.0 | 0.0 | 0.00 | 0.00 | 0.00 | 91 | 1022.1 |
| 20260830094606 | 16 | 0 | 0.0 | 0.0 | 0.00 | 0.00 | 0.00 | 91 | 1022.0 |
| 20260830093055 | 16 | 0 | 0.0 | 0.0 | 0.00 | 0.00 | 0.00 | 91 | 1022.2 |
| 20260830091601 | 15 | 0 | 0.0 | 0.0 | 0.00 | 0.00 | 0.00 | 91 | 1022.0 |
| 20260830084550 | 15 | 0 | 0.0 | 0.0 | 0.00 | 0.00 | 0.00 | 92 | 1022.1 |
| 20260830083107 | 15 | 0 | 0.0 | 0.0 | 0.00 | 0.00 | 0.00 | 92 | 1022.2 |
| 20260830081558 | 15 | 0 | 0.0 | 0.0 | 0.00 | 0.00 | 0.00 | 92 | 1022.4 |
| 20260830080054 | 15 | 0 | 0.0 | 0.0 | 0.00 | 0.00 | 0.00 | 93 | 1022.2 |
| 20260830074550 | 15 | 0 | 0.0 | 0.0 | 0.00 | 0.00 | 0.00 | 93 | 1022.4 |
| 20260830073103 | 15 | 0 | 0.0 | 0.0 | 0.00 | 0.00 | 0.00 | 93 | 1022.3 |
| 20260830071604 | 15 | 0 | 0.0 | 0.0 | 0.00 | 0.00 | 0.00 | 93 | 1022.3 |
| 20260830070103 | 15 | 0 | 0.0 | 0.0 | 0.00 | 0.00 | 0.00 | 93 | 1022.1 |
| 20260830064553 | 15 | 0 | 0.0 | 0.0 | 0.00 | 0.00 | 0.00 | 93 | 1022.2 |
| 20260830063101 | 15 | 0 | 0.0 | 0.0 | 0.00 | 0.00 | 0.00 | 93 | 1022.3 |
| 20260830061559 | 15 | 0 | 0.0 | 0.0 | 0.00 | 0.00 | 0.00 | 93 | 1022.4 |
| 20260830060100 | 15 | 0 | 0.0 | 0.0 | 0.00 | 0.00 | 0.00 | 92 | 1022.3 |
| 20260830054602 | 15 | 0 | 0.0 | 0.0 | 0.00 | 0.00 | 0.00 | 92 | 1022.3 |
| 20260830053117 | 15 | 0 | 0.0 | 0.0 | 0.00 | 0.00 | 0.00 | 91 | 1022.2 |
| 20260830051558 | 15 | 0 | 0.0 | 0.0 | 0.00 | 0.00 | 0.00 | 90 | 1022.1 |
| 20260830050119 | 15 | 0 | 0.0 | 0.0 | 0.00 | 0.00 | 0.00 | 90 | 1022.3 |
| 20260830044551 | 15 | 0 | 0.0 | 0.0 | 0.00 | 0.00 | 0.00 | 90 | 1022.2 |
| 20260830043052 | 15 | 0 | 0.0 | 0.0 | 0.00 | 0.00 | 0.00 | 89 | 1022.2 |
| 20260830041627 | 16 | 0 | 0.0 | 0.0 | 0.00 | 0.00 | 0.00 | 88 | 1022.1 |
| 20260830040054 | 16 | 0 | 0.0 | 0.0 | 0.00 | 0.00 | 0.00 | 88 | 1022.1 |
| 20260830034553 | 16 | 0 | 0.0 | 0.0 | 0.00 | 0.00 | 0.00 | 87 | 1022.2 |
| 20260830033102 | 16 | 0 | 0.0 | 0.0 | 0.00 | 0.00 | 0.00 | 86 | 1022.2 |
| 20260830031559 | 16 | 0 | 0.0 | 0.0 | 0.00 | 0.00 | 0.00 | 86 | 1022.1 |
| 20260830030105 | 16 | 0 | 0.0 | 0.0 | 0.00 | 0.00 | 0.00 | 84 | 1022.0 |
| 20260830024606 | 16 | 0 | 0.0 | 0.0 | 0.00 | 0.00 | 0.00 | 84 | 1022.1 |
| 20260830023111 | 16 | 0 | 0.0 | 0.0 | 0.00 | 0.00 | 0.00 | 83 | 1022.1 |
| 20260830021602 | 16 | 0 | 0.0 | 0.0 | 0.00 | 0.00 | 0.00 | 84 | 1021.9 |
| 20260830020058 | 16 | 0 | 0.0 | 0.0 | 0.00 | 0.00 | 0.00 | 84 | 1022.0 |
| 20260830014611 | 17 | 0 | 0.0 | 0.0 | 0.00 | 0.00 | 0.00 | 85 | 1022.1 |
| 20260830013108 | 17 | 0 | 0.0 | 0.0 | 0.00 | 0.00 | 0.00 | 83 | 1021.8 |